Location: Blackwall
(51.5097°N, 0.0016°W)
Time: 11:28:26
(UTC+00:00)

Cosmos-2242 - Pass Details

Date: 15 May 2026
Orbit: 565 x 588 km, 82.5° (Epoch: 9 June)

Event Time Altitude Azimuth Distance (km) Brightness Sun altitude
Exits shadow 21:37:55 20° 127° (SE) 1,346 4.2 -13.2°
Maximum altitude 21:39:39 27° 89° (E) 1,119 4.1 -13.4°
Drops below altitude 10° 21:43:08 10° 32° (NNE) 1,876 5.9 -13.7°
Sets 21:45:33 0° 20° (NNE) 2,777 7.0 -13.9°
